GW0368 Weather Reports


Display with metric or nautical units.
time (UTC)temp
F
wind
direction
speed
MPH
gust
MPH
rain 1hr
in
rain 24hr
in
rain mn
in
humidity
%
barometer
mb
20260505213018 80 168 2.0 11.0 0.00 0.00 0.00 51 1015.5
20260505211524 80 315 2.0 11.0 0.00 0.00 0.00 52 1015.6
20260505210058 79 259 8.0 16.0 0.00 0.00 0.00 52 1016.0
20260505204540 79 311 5.0 12.0 0.00 0.00 0.00 51 1015.9
20260505203048 80 213 2.0 15.0 0.00 0.00 0.00 52 1015.8
20260505201550 80 105 2.0 10.0 0.00 0.00 0.00 52 1015.8
20260505200034 80 298 5.0 12.0 0.00 0.00 0.00 50 1016.1
20260505194542 80 215 5.0 12.0 0.00 0.00 0.00 50 1016.4
20260505193058 79 290 3.0 11.0 0.00 0.00 0.00 52 1016.6
20260505191601 80 188 2.0 9.0 0.00 0.00 0.00 52 1016.9
20260505190040 79 208 3.0 10.0 0.00 0.00 0.00 52 1017.1
20260505184510 79 15 4.0 10.0 0.00 0.00 0.00 52 1017.3
20260505183018 78 252 5.0 10.0 0.00 0.00 0.00 52 1017.6
20260505181533 78 243 7.0 12.0 0.00 0.00 0.00 52 1017.6
20260505180042 78 78 5.0 10.0 0.00 0.00 0.00 55 1017.6
20260505174609 78 256 3.0 12.0 0.00 0.00 0.00 56 1017.7
20260505173103 77 200 3.0 10.0 0.00 0.00 0.00 58 1017.6
20260505171604 77 291 5.0 10.0 0.00 0.00 0.00 58 1017.8
20260505170035 76 161 4.0 10.0 0.00 0.00 0.00 60 1017.9
20260505164532 76 201 3.0 11.0 0.00 0.00 0.00 61 1018.1
20260505163035 75 133 3.0 11.0 0.00 0.00 0.00 62 1018.2
20260505161528 74 225 4.0 12.0 0.00 0.00 0.00 64 1018.3
20260505153052 72 229 7.0 11.0 0.00 0.00 0.00 66 1018.8
20260505151545 71 268 5.0 11.0 0.00 0.00 0.00 67 1018.9
20260505124554 62 210 3.0 9.0 0.00 0.00 0.00 79 1019.0
20260505123057 60 176 3.0 7.0 0.00 0.00 0.00 79 1018.9
20260505121523 59 292 2.0 6.0 0.00 0.00 0.00 79 1018.9
20260505120045 58 223 2.0 7.0 0.00 0.00 0.00 80 1018.9
20260505114525 57 217 0.0 3.0 0.00 0.00 0.00 80 1018.8
20260505113034 56 230 0.0 4.0 0.00 0.00 0.00 81 1018.7
20260505111551 54 193 0.0 2.0 0.00 0.00 0.00 81 1018.5
20260505101537 54 186 0.0 1.0 0.00 0.00 0.00 77 1017.7
20260505100052 54 186 0.0 3.0 0.00 0.00 0.00 77 1017.6
20260505094548 55 229 0.0 1.0 0.00 0.00 0.00 77 1017.5
20260505093045 55 229 0.0 3.0 0.00 0.00 0.00 77 1017.5
20260505091559 55 229 1.0 2.0 0.00 0.00 0.00 77 1017.4
20260505090033 56 230 0.0 2.0 0.00 0.00 0.00 75 1017.1
20260505084523 57 230 0.0 2.0 0.00 0.00 0.00 75 1017.1
20260505083047 57 235 0.0 4.0 0.00 0.00 0.00 76 1017.0
20260505081546 58 218 0.0 2.0 0.00 0.00 0.00 74 1016.8
20260505080042 58 246 0.0 5.0 0.00 0.00 0.00 74 1016.8
20260505074527 58 217 1.0 4.0 0.00 0.00 0.00 74 1016.7
20260505073043 58 205 1.0 5.0 0.00 0.00 0.00 73 1016.7
20260505071536 59 177 1.0 5.0 0.00 0.00 0.00 73 1016.7
20260505070053 59 225 1.0 7.0 0.00 0.00 0.00 72 1016.8
20260505064556 59 243 1.0 4.0 0.00 0.00 0.00 72 1016.8
20260505063101 60 221 1.0 5.0 0.00 0.00 0.00 72 1016.8
20260505061525 60 232 1.0 7.0 0.00 0.00 0.00 71 1016.8
20260505060139 60 236 1.0 8.0 0.00 0.00 0.00 71 1016.9
20260505054600 61 225 1.0 4.0 0.00 0.00 0.00 70 1017.0
20260505053034 61 227 2.0 7.0 0.00 0.00 0.00 70 1017.1
20260505051555 62 247 2.0 6.0 0.00 0.00 0.00 69 1017.2
20260505041558 63 247 2.0 10.0 0.00 0.00 0.00 68 1017.2
20260505040049 63 161 2.0 8.0 0.00 0.00 0.00 68 1017.3
20260505034523 63 250 4.0 12.0 0.00 0.00 0.00 68 1017.2
20260505033032 63 238 2.0 7.0 0.00 0.00 0.00 67 1017.2
20260505031503 64 223 3.0 9.0 0.00 0.00 0.00 67 1017.3
20260505030016 64 213 1.0 6.0 0.00 0.00 0.00 65 1017.3
20260505024519 65 210 5.0 8.0 0.00 0.00 0.00 65 1017.2
20260505023105 65 248 4.0 12.0 0.00 0.00 0.00 65 1017.0
20260505021601 66 161 4.0 11.0 0.00 0.00 0.00 63 1017.1
20260505020059 67 221 2.0 9.0 0.00 0.00 0.00 63 1017.0
20260505014549 67 303 2.0 11.0 0.00 0.00 0.00 61 1016.8
20260505013059 68 219 3.0 12.0 0.00 0.00 0.00 60 1016.6
20260505011535 68 159 1.0 8.0 0.00 0.00 0.00 57 1016.3
20260505010018 68 26 1.0 2.0 0.00 0.00 0.00 52 1016.0
20260505004517 69 216 0.0 2.0 0.00 0.00 0.00 49 1015.7
20260505003018 70 213 0.0 3.0 0.00 0.00 0.00 48 1015.5
20260505001521 71 217 0.0 6.0 0.00 0.00 0.00 48 1015.6
20260505000053 72 69 1.0 5.0 0.00 0.00 0.00 48 1015.4
20260504234529 73 251 2.0 5.0 0.00 0.00 0.00 47 1015.2
20260504233010 74 230 1.0 5.0 0.00 0.00 0.00 45 1015.0
20260504231635 75 196 0.0 8.0 0.00 0.00 0.00 44 1014.9
20260504230047 76 234 2.0 9.0 0.00 0.00 0.00 43 1014.9
20260504224612 76 202 2.0 12.0 0.00 0.00 0.00 42 1014.9
20260504223039 77 262 5.0 10.0 0.00 0.00 0.00 40 1014.9
20260504221528 78 234 4.0 9.0 0.00 0.00 0.00 40 1014.9
20260504220134 78 212 4.0 9.0 0.00 0.00 0.00 38 1014.9
20260504214537 78 175 5.0 12.0 0.00 0.00 0.00 39 1015.0